Location: Unspecified
(43.9500°N, 64.7900°W)
Time: 22:56:54
(UTC-04:00)

N. Korean satellite - Visible Passes

Search period start: 19 January 2019 00:00
Search period end: 29 January 2019 00:00
Orbit: 458 x 509 km, 97.2° (Epoch: 19 January)

Date Brightness Start Highest point End Pass type
(mag) Time Alt. Az. Time Alt. Az. Time Alt. Az.
19 Jan 8.7 06:03:02 10° NNE 06:06:23 31° E 06:09:40 10° SSE visible
19 Jan 8.3 18:13:03 10° SSW 18:16:28 37° W 18:19:57 10° NNW visible
20 Jan 9.8 05:39:10 10° NE 05:41:33 16° E 05:43:55 10° SE visible
20 Jan 7.2 07:11:42 10° N 07:15:08 35° WNW 07:18:29 10° SW visible
20 Jan 6.8 17:48:06 10° S 17:51:45 79° WSW 17:55:30 10° NNW visible
21 Jan 6.5 06:46:50 10° N 06:50:33 72° WNW 06:54:11 10° SSW visible
21 Jan 10.2 18:59:33 10° WSW 19:00:53 12° W 19:02:14 10° WNW visible
22 Jan 7.4 06:22:13 10° NNE 06:25:53 54° E 06:29:28 10° S visible
22 Jan 9.4 18:33:05 10° SSW 18:36:00 22° W 18:38:59 10° NW visible
23 Jan 8.9 05:57:56 10° NE 06:01:07 27° E 06:04:15 10° SSE visible
23 Jan 8.0 18:07:42 10° S 18:11:13 43° W 18:14:48 10° NNW visible
24 Jan 10.0 05:34:15 10° ENE 05:36:16 14° E 05:38:16 10° SE visible
24 Jan 7.0 07:06:26 10° N 07:09:54 40° WNW 07:13:19 10° SW visible
24 Jan 6.7 17:42:50 10° SSE 17:46:31 89° ENE 17:50:17 10° NNW visible
25 Jan 6.5 06:41:36 10° N 06:45:19 83° W 06:48:56 10° SSW visible
25 Jan 10.1 18:53:42 10° WSW 18:55:35 13° W 18:57:28 10° WNW visible
26 Jan 7.8 06:17:03 10° NNE 06:20:37 46° E 06:24:06 10° S visible
26 Jan 9.2 18:27:36 10° SSW 18:30:43 25° W 18:33:53 10° NW visible
27 Jan 9.2 05:52:50 10° NE 05:55:49 23° E 05:58:45 10° SSE visible
27 Jan 7.7 18:02:20 10° S 18:05:56 50° W 18:09:36 10° NNW visible
28 Jan 10.1 05:29:26 10° ENE 05:30:56 12° E 05:32:25 10° ESE visible
28 Jan 6.9 07:01:07 10° N 07:04:39 45° WNW 07:08:06 10° SSW visible
